星链-31334 (STARLINK-31334 )

导读

STARLINK-31334是美国太空探索技术公司星链星座的一颗卫星,于2024年3月4日发射升空,属于星链计划扩容组网的卫星之一。星链项目旨在构建全球卫星互联网星座,为全球范围内用户提供低延迟、高速率的宽带互联网服务,该卫星后续将在近地轨道开展运行工作。

Basic Information
目录编号:
59157
目录名称:
STARLINK-31334
国际标识:
2024-044F
轨道中心:
EARTH
卫星名称:
星链-31334
卫星全名:
星链-31334 (STARLINK-31334 )
卫星状态:
在轨 (已飞行921 天)
发射日期:
2024-03-04 UTC
国别 :
美国 (US)
星等 :
--
This satellite is enrolled in the Space Conjunction Data Service (SCDS) and the current flight risk assessment level is: High Risk
Orbit Information
数据来源 国际轨道数据 AOE轨道数据
星历时间 2026-09-11T09:20:45+0800
12小时前
查看轨道信息
2026-09-06T00:00:00+0800
5天前
查看轨道信息
半长轴 6861.199km 6861.171km
偏心率 0.000089 0.0001121
轨道倾角 43.002° 43.000°
近地点辐角 267.029° 251.846°
升交点赤经 143.730° 174.171°
平近点角 93.046° 315.621°
近地点 482.451km 482.264km
远地点 483.673km 483.804km
周期 94.267分钟 94.266分钟
每日圈数 15.275759 15.275852
Detailed Information
固有亮度:
5
最大亮度:
0.3
卫星平台:
Starlink v2.0 mini
覆盖范围:
全球
运营商:
太空探索技术公司
运营商所在国:
美国
制造商(研发单位):
太空探索技术公司
制造商所在国:
美国
使用方式:
暂无
Satellite Introduction
星链(Starlink)计划是由太空探索技术公司(SpaceX)提出的一个巨型低轨卫星互联网星座项目,计划在2019年至2024年间在太空搭建由约1.2万颗卫星组成的“星链”网络,其中1584颗将部署在地球上空550千米处的近地轨道,并从2020年开始工作。该卫星仍在工作。
2D Orbit Map
3D Orbit Map
Orbit Altitude Analysis Chart
Orbit Inclination Analysis Chart
Orbit Comprehensive Analysis Chart
View Comprehensive Chart
Conjunction Data List
Event ID Objects TCA Miss Dist (km) Collision Risk Probability Collision Risk Index (CRI) Action
CDM_260912-223305-915706-711021
2026-09-12T
22:33:35+0000
0.219 km
中距离
5.037151E-4 高风险 0.89
CDM_260911-123005-915706-404421
2026-09-11T
12:30:42+0000
2.544 km
极远距离
1.49619E-6 低风险 0.38
CDM_260913-174305-915706-443021
2026-09-13T
17:43:56+0000
2.603 km
极远距离
1.494741E-6 低风险 0.38
CDM_260913-000705-915706-711021
2026-09-13T
00:07:44+0000
2.315 km
极远距离
1.084274E-6 低风险 0.36
CDM_260912-205905-915706-711021
2026-09-12T
20:59:25+0000
2.583 km
极远距离
8.987744E-7 极低风险 0.34
Miss Distance Evolution Trend with All Objects
Collision Probability Evolution Trend with All Objects